Wind_Speed
3 2 3 4 4 4 3 3 5 7 7 7 7 7 7 7 8 8 8 9 10 9 9 10 9 9 9 9 9 10 10 10 11 11 11 10 10 11 11 11 11 12 12 12
5 6 5 5 5 4 5 7 7 8 7 6 6 6 6 7 9 9 9 10 10 10 9 10 10 10 10 10 10 10 10 11 11 11 11 11 11 11 12 12 13 13 13 13
6 5 5 6 5 6 7 7 6 7 7 5 6 8 8 7 9 10 11 12 11 10 11 11 11 11 11 10 10 10 10 11 11 11 11 12 12 13 13 13 14 14 15 14
7 7 6 7 6 6 7 6 6 7 7 6 6 9 8 8 8 10 12 13 12 11 12 12 12 11 11 10 10 10 11 11 12 12 12 13 13 14 14 14 15 15 15 14
8 8 7 8 8 7 7 5 6 6 7 9 7 9 10 10 9 12 14 14 14 13 13 13 13 12 12 11 11 11 12 12 12 13 13 13 14 14 15 15 15 14 14 14
9 9 9 10 9 8 7 5 6 6 7 11 8 10 12 11 12 14 15 15 15 14 14 14 14 13 13 12 12 12 13 13 13 13 13 14 15 16 16 16 15 15 15 15
9 10 10 9 9 8 7 6 7 10 10 10 8 10 13 13 15 15 16 16 15 14 14 14 14 14 13 13 13 13 13 14 14 14 14 15 16 16 16 16 17 17 17 16
10 11 11 11 10 10 9 9 10 11 11 10 9 11 13 13 16 16 16 16 16 15 14 14 14 14 14 14 14 14 14 14 14 15 15 16 17 17 17 17 18 18 18 17
9 11 13 13 12 12 11 11 11 12 12 11 12 13 13 16 17 17 17 16 16 16 16 15 15 15 15 15 15 15 15 15 15 16 16 17 17 17 18 18 19 18 18 18
12 13 13 13 13 13 13 12 11 11 13 13 15 14 15 16 17 18 17 17 17 17 17 17 17 17 17 17 16 16 17 17 17 17 18 18 19 18 19 19 19 19 19 19
15 16 14 13 14 13 14 13 13 13 13 14 17 19 18 16 18 20 20 18 17 18 19 19 18 18 18 18 18 17 18 17 17 18 18 19 20 20 20 20 20 20 20 20
16 15 16 15 16 16 16 15 15 16 16 16 17 21 20 19 19 20 20 20 19 19 20 20 19 20 19 19 19 19 19 19 19 19 19 20 21 21 21 21 21 22 22 22
18 17 17 16 16 17 17 16 15 16 16 17 18 21 21 20 20 20 21 21 20 20 20 20 21 21 20 20 20 20 21 21 21 21 21 22 22 22 23 23 23 23 23 23
20 20 20 19 17 16 15 16 16 16 18 19 19 22 24 22 22 21 21 22 22 22 21 21 22 22 22 22 22 22 22 23 23 23 23 24 23 24 24 24 23 23 23 23
21 21 22 21 19 18 19 18 18 19 19 20 21 24 26 23 22 23 23 23 23 24 23 22 24 24 24 24 24 24 24 24 24 25 26 26 27 27 26 25 25 25 25 24
23 23 23 22 20 19 19 19 19 18 19 20 22 24 26 25 24 25 25 24 25 25 26 25 26 26 26 26 26 25 25 26 26 26 27 27 27 28 28 27 27 26 26 26
21 22 23 22 21 20 21 21 21 20 19 20 23 25 26 25 26 27 26 26 26 26 27 27 27 27 28 27 27 27 27 27 27 28 28 28 28 28 28 27 27 27 26 26
22 23 22 22 22 22 21 21 21 21 22 22 24 25 26 27 27 28 27 27 27 27 27 28 28 28 28 27 27 27 28 29 29 29 29 28 27 28 28 28 27 28 28 27
24 24 24 23 23 23 22 23 23 21 23 23 24 26 25 27 27 29 28 28 28 29 28 28 28 29 28 27 27 28 29 29 30 29 29 29 28 28 28 28 28 28 29 28
26 25 25 25 25 23 24 23 23 23 26 26 26 27 28 29 29 30 30 29 29 29 29 28 28 28 28 27 27 28 28 29 29 29 29 29 29 29 29 29 29 30 30 30
24 25 26 25 26 26 26 25 25 25 27 27 27 28 29 29 30 30 30 30 29 28 28 29 29 29 29 29 28 29 29 29 29 30 30 30 30 30 30 30 31 31 32 32
23 24 25 25 26 27 27 27 27 28 28 28 28 29 30 30 31 31 30 30 29 29 29 30 30 30 30 30 30 30 30 30 31 31 31 31 31 31 31 31 32 32 33 33
24 25 26 27 27 27 29 30 30 30 30 30 30 31 31 31 31 31 31 30 30 30 30 31 31 31 32 32 33 33 33 33 33 33 32 32 32 32 32 32 33 33 33 32
26 28 28 29 29 29 29 30 32 32 31 32 33 33 34 33 32 32 32 32 32 31 31 32 32 33 33 33 34 34 34 34 34 34 34 33 33 33 33 34 33 33 32 32
28 29 29 30 30 30 30 31 31 32 31 31 32 33 34 34 33 33 33 32 32 32 32 33 33 33 34 34 34 35 35 35 35 34 34 34 34 34 34 34 33 33 33 33
30 29 29 31 31 31 31 32 33 33 32 31 32 33 34 34 34 34 34 33 33 33 33 33 34 34 35 34 34 34 34 34 35 35 35 35 34 34 34 34 33 33 33 33
Wind_Direction
225 240 261 251 244 246 245 239 269 287 289 292 308 319 325 337 337 334 340 340 345 345 344 341 336 331 330 330 329 330 331 334 334 335 334 330 327 328 329 322 321 320 317 315
235 250 251 248 244 238 253 258 263 273 285 295 302 306 310 326 328 325 331 334 340 341 340 339 338 332 328 325 323 322 327 329 330 331 330 329 327 325 326 324 319 319 315 312
228 240 244 248 251 254 257 263 275 284 289 301 304 302 306 318 323 322 326 329 332 333 332 333 332 332 328 327 325 324 326 327 328 328 328 327 325 325 325 322 319 317 316 313
240 249 253 253 251 254 260 254 262 268 283 289 290 289 298 301 306 313 319 324 326 328 327 328 328 327 328 327 327 327 326 326 326 326 324 323 322 323 324 322 319 318 316 314
240 247 253 255 253 248 250 251 253 263 276 276 284 274 280 298 300 312 316 321 321 322 324 324 326 325 325 327 327 326 322 322 322 321 320 320 322 323 323 322 320 320 320 314
234 246 253 255 260 256 258 267 264 267 275 282 281 282 286 298 298 305 311 315 316 316 322 320 321 322 321 322 322 320 319 318 319 318 317 318 319 320 320 319 319 318 316 315
242 243 252 257 253 250 250 257 268 276 271 278 284 277 274 286 293 300 305 310 314 315 319 318 318 317 317 315 316 315 315 318 318 318 318 319 319 320 319 318 318 316 313 313
239 242 250 254 256 253 253 256 270 279 277 280 280 267 275 287 289 294 300 304 308 311 312 315 315 314 312 311 312 313 314 315 316 317 317 320 322 321 320 318 316 315 313 311
237 251 258 260 260 257 253 258 270 279 282 272 264 262 265 280 288 293 298 303 305 306 308 309 310 310 310 309 310 312 312 312 313 313 315 317 318 320 320 319 318 316 314 313
234 239 244 256 259 262 256 253 256 263 273 276 279 275 267 269 281 290 296 299 305 303 305 307 309 311 308 306 309 308 309 309 310 309 310 311 312 315 316 315 316 315 313 312
236 242 242 243 248 254 257 256 250 254 256 271 285 284 278 280 291 296 298 299 302 302 303 306 307 307 306 306 306 305 306 306 306 307 307 308 310 311 312 312 312 312 311 309
240 246 248 248 249 252 253 251 252 256 257 261 276 284 283 284 285 288 291 296 300 302 301 303 304 306 308 307 305 304 305 305 305 306 306 306 307 308 308 309 309 309 308 308
240 244 250 250 254 257 256 250 250 252 258 262 267 274 276 280 283 285 289 293 296 299 298 298 301 302 303 304 303 302 302 302 302 303 304 304 305 304 305 306 307 308 306 305
240 244 247 249 251 256 256 256 255 253 253 257 263 269 273 278 285 289 288 290 293 294 295 296 296 300 299 299 300 300 299 300 301 301 302 301 301 302 304 305 305 305 304 304
242 247 251 250 245 252 253 254 251 252 256 258 265 270 273 275 281 285 287 289 291 293 294 295 295 296 297 296 297 297 298 299 300 301 301 301 301 302 302 304 305 305 305 305
246 248 251 252 248 252 257 259 255 256 260 260 265 268 273 279 284 285 286 287 288 290 292 293 294 295 296 295 295 296 297 297 298 299 299 300 301 301 301 302 303 303 304 303
249 251 251 254 253 252 254 253 257 256 263 265 268 271 274 276 281 284 286 288 290 290 290 291 292 293 295 296 295 296 296 296 296 298 298 299 300 300 301 300 301 302 302 302
254 251 251 254 253 251 252 253 259 263 262 265 268 272 277 279 282 284 286 288 289 290 290 292 292 293 295 296 295 296 296 295 295 296 297 299 299 298 298 299 299 300 301 301
250 253 251 251 253 255 254 254 255 261 265 266 268 270 273 278 280 282 285 288 288 289 289 291 292 294 295 294 294 295 295 295 294 295 295 296 297 297 297 298 298 298 299 299
252 252 252 254 254 256 258 258 261 263 266 268 270 273 271 277 280 281 284 286 287 289 290 290 291 293 293 294 295 295 296 296 295 294 294 294 295 296 296 296 296 297 298 298
254 255 255 256 258 258 258 260 266 266 267 270 271 274 276 279 281 282 285 286 286 287 288 289 291 292 293 294 296 296 297 297 296 295 295 294 293 293 294 295 296 296 297 297
249 252 255 257 258 255 257 260 261 264 266 269 272 274 276 278 279 281 284 286 285 287 288 289 289 291 292 292 294 294 295 296 296 295 294 294 293 292 293 293 294 294 295 297
245 249 251 250 252 256 257 259 261 264 267 271 272 274 277 277 279 281 283 286 288 288 287 287 288 289 291 291 292 293 293 294 294 294 294 293 292 292 292 292 293 294 295 296
246 247 251 252 253 255 257 259 262 265 267 270 273 276 278 279 281 283 285 287 288 288 287 287 287 288 289 290 291 292 292 293 293 293 292 292 292 291 291 291 292 292 293 295
247 249 252 254 255 258 259 260 264 265 266 271 274 277 279 281 283 285 286 287 288 288 287 287 288 288 288 289 290 291 292 293 293 293 293 292 292 291 290 290 291 291 292 294
249 251 252 254 257 258 261 263 265 269 272 274 274 275 277 280 282 284 285 285 285 286 287 288 289 288 287 288 290 292 292 292 293 293 293 293 292 291 290 290 290 291 292 294
Height
5916 5917 5918 5919 5920 5920 5921 5921 5921 5920 5919 5918 5916 5915 5914 5913 5912 5911 5910 5908 5906 5905 5904 5903 5902 5901 5900 5899 5898 5896 5895 5894 5892 5891 5890 5889 5888 5887 5885 5884 5883 5882 5881 5880
5917 5918 5918 5918 5918 5920 5920 5920 5920 5919 5918 5917 5916 5914 5913 5912 5912 5910 5909 5908 5906 5905 5904 5902 5901 5900 5899 5898 5897 5896 5894 5893 5892 5890 5889 5888 5887 5885 5884 5883 5882 5880 5879 5878
5916 5917 5917 5918 5918 5919 5919 5919 5919 5918 5917 5916 5916 5914 5913 5911 5911 5910 5908 5907 5906 5905 5903 5902 5901 5899 5898 5897 5896 5894 5893 5892 5891 5889 5888 5887 5886 5884 5883 5881 5880 5879 5877 5876
5914 5915 5916 5917 5917 5917 5918 5918 5918 5918 5916 5916 5917 5914 5912 5910 5909 5909 5908 5906 5905 5904 5903 5901 5900 5898 5897 5896 5895 5893 5892 5891 5890 5888 5887 5886 5884 5883 5881 5880 5878 5876 5875 5873
5913 5914 5915 5916 5916 5916 5916 5916 5917 5916 5916 5916 5915 5913 5911 5910 5908 5908 5907 5905 5904 5903 5902 5900 5898 5897 5896 5895 5893 5892 5891 5890 5888 5887 5885 5884 5882 5881 5879 5878 5876 5874 5873 5871
5912 5913 5914 5914 5915 5915 5915 5915 5915 5915 5915 5914 5914 5913 5910 5908 5908 5908 5906 5904 5902 5900 5900 5898 5897 5896 5894 5893 5892 5891 5890 5888 5887 5885 5884 5882 5880 5878 5877 5875 5873 5872 5870 5869
5910 5912 5912 5912 5913 5913 5914 5915 5915 5914 5913 5913 5912 5912 5910 5908 5908 5906 5905 5903 5901 5900 5899 5897 5895 5894 5893 5891 5890 5889 5888 5886 5885 5883 5881 5880 5878 5876 5874 5872 5871 5869 5868 5866
5908 5910 5910 5910 5911 5911 5912 5913 5914 5913 5912 5911 5910 5909 5907 5906 5905 5904 5903 5901 5900 5898 5897 5895 5894 5892 5890 5889 5888 5887 5885 5884 5882 5881 5879 5877 5875 5873 5871 5870 5868 5866 5864 5862
5906 5907 5908 5908 5909 5909 5910 5910 5912 5912 5910 5910 5908 5906 5904 5904 5902 5901 5900 5899 5897 5896 5895 5893 5891 5890 5888 5887 5885 5884 5883 5881 5880 5878 5876 5875 5873 5871 5869 5867 5865 5863 5861 5859
5903 5904 5906 5906 5906 5907 5908 5908 5909 5910 5908 5907 5906 5903 5900 5899 5899 5899 5897 5896 5895 5893 5892 5890 5889 5887 5885 5884 5882 5881 5879 5878 5877 5875 5873 5871 5869 5868 5866 5864 5862 5860 5857 5855
5899 5900 5901 5903 5903 5904 5905 5905 5905 5905 5905 5906 5903 5901 5897 5896 5897 5897 5895 5894 5892 5890 5889 5888 5886 5885 5883 5880 5879 5877 5876 5874 5873 5872 5870 5868 5866 5864 5862 5861 5858 5856 5854 5852
5895 5896 5897 5898 5900 5900 5901 5901 5902 5903 5902 5902 5900 5899 5893 5893 5893 5893 5891 5890 5889 5888 5886 5884 5883 5881 5879 5877 5876 5874 5872 5871 5869 5867 5866 5864 5862 5860 5858 5856 5854 5852 5850 5847
5891 5892 5893 5895 5897 5896 5896 5896 5897 5899 5899 5898 5898 5897 5890 5888 5889 5888 5887 5886 5885 5884 5883 5881 5879 5877 5876 5874 5872 5870 5868 5867 5865 5863 5861 5859 5857 5855 5853 5851 5849 5847 5845 5842
5886 5887 5889 5891 5892 5892 5892 5893 5893 5894 5894 5894 5893 5891 5887 5885 5884 5884 5884 5882 5881 5880 5878 5877 5875 5873 5872 5870 5868 5866 5865 5863 5861 5859 5857 5855 5852 5850 5848 5846 5844 5842 5839 5837
5880 5882 5883 5884 5885 5886 5888 5888 5889 5889 5889 5890 5888 5886 5883 5881 5879 5880 5879 5878 5877 5875 5873 5872 5871 5869 5867 5865 5863 5862 5860 5858 5856 5854 5852 5850 5847 5845 5842 5840 5839 5836 5834 5832
5874 5876 5877 5878 5879 5880 5881 5883 5884 5884 5884 5884 5884 5881 5877 5876 5875 5875 5874 5873 5872 5871 5869 5867 5866 5864 5861 5860 5858 5856 5854 5853 5850 5848 5846 5844 5842 5839 5837 5835 5832 5830 5828 5826
5869 5870 5871 5873 5874 5875 5876 5878 5878 5878 5879 5880 5878 5876 5872 5871 5871 5870 5869 5868 5867 5865 5864 5862 5860 5858 5856 5854 5852 5850 5848 5846 5844 5842 5840 5838 5836 5833 5831 5828 5826 5824 5822 5820
5863 5864 5866 5867 5869 5869 5873 5873 5873 5873 5873 5873 5872 5870 5868 5865 5864 5864 5863 5862 5860 5859 5857 5856 5854 5852 5850 5847 5845 5844 5842 5840 5838 5836 5833 5831 5829 5826 5824 5822 5820 5818 5816 5813
5857 5859 5860 5861 5862 5863 5866 5865 5866 5867 5866 5866 5865 5864 5863 5860 5859 5857 5857 5856 5854 5852 5850 5849 5847 5845 5843 5841 5839 5837 5835 5833 5831 5828 5826 5824 5822 5820 5818 5816 5813 5811 5809 5806
5851 5852 5854 5855 5856 5857 5859 5858 5859 5861 5859 5859 5858 5857 5856 5853 5852 5850 5850 5848 5847 5846 5844 5842 5840 5838 5836 5834 5832 5830 5828 5826 5823 5821 5819 5817 5815 5813 5811 5809 5806 5804 5802 5799
5845 5846 5847 5848 5849 5850 5851 5851 5853 5854 5852 5851 5850 5849 5848 5847 5846 5844 5842 5841 5840 5839 5837 5836 5834 5832 5829 5827 5825 5823 5821 5819 5816 5814 5812 5809 5807 5806 5804 5801 5799 5796 5794 5791
5839 5840 5841 5842 5843 5845 5843 5844 5845 5845 5844 5843 5843 5842 5841 5840 5838 5837 5835 5834 5832 5831 5830 5828 5826 5824 5822 5820 5818 5816 5814 5811 5809 5806 5804 5802 5799 5797 5795 5793 5791 5788 5786 5783
5832 5834 5834 5835 5837 5836 5836 5836 5836 5837 5837 5836 5836 5834 5833 5832 5831 5830 5828 5826 5824 5823 5822 5820 5818 5816 5814 5812 5810 5808 5806 5803 5801 5798 5796 5793 5791 5789 5786 5784 5782 5780 5777 5774
5823 5824 5825 5826 5827 5827 5828 5828 5828 5829 5829 5829 5828 5826 5825 5824 5822 5822 5821 5819 5817 5815 5814 5812 5810 5808 5806 5804 5802 5800 5797 5795 5792 5790 5787 5784 5782 5780 5777 5775 5773 5771 5768 5766
5815 5817 5817 5817 5818 5819 5820 5820 5820 5820 5819 5819 5818 5818 5816 5815 5815 5814 5812 5811 5809 5807 5805 5803 5801 5799 5797 5795 5793 5790 5788 5785 5783 5780 5778 5775 5773 5770 5768 5766 5763 5761 5759 5757
5808 5809 5809 5809 5810 5811 5811 5812 5812 5812 5811 5810 5810 5810 5808 5807 5806 5805 5803 5802 5800 5798 5796 5794 5793 5790 5788 5786 5784 5781 5779 5776 5773 5771 5768 5765 5763 5760 5758 5756 5754 5752 5750 5748